Flag for Mexico Weather past 2 weeks in Torreón, Coahuila, Mexico

Now
63 °F

Passing clouds.


Feels Like: 63 °F
Forecast: 69 / 88 °F
Wind: 5 mph from South

Location: Durango Airport

Current Time: Sep 20, 2014 at 3:24:03 AM

Latest Report: Sep 20, 2014 at 3:01 AM


Visibility: 8 mi

Pressure: 30.19 "Hg

Humidity: 83%

Dew point: 57 °F

Location of TorreónLocation

Historic Weather in Torreón — Graph

°F

Torreón temperature yesterday

Maximum temperature yesterday: 81 °F (at 3:46 PM)
Minimum temperature yesterday: 57 °F (at 6:46 AM)
Average temperature yesterday: 71 °F

Past Weeks' High & Low Weather Summary

 TemperatureHumidityPressure
High82 °F (Sep 7, 9:46 PM)100% (Sep 7, 6:03 AM)30.31 "Hg (Sep 7, 6:03 AM)
Low54 °F (Sep 8, 7:42 AM)26% (Sep 12, 5:46 PM)29.41 "Hg (Sep 11, 6:50 AM)
Average68 °F66%30.06 "Hg
* Reported Sep 5 4:52 AM — Sep 19 11:43 PM, Torreón, Weather by CustomWeather, © 2014

Note: Actual official high and low records may vary slightly from our data, if they occured in-between our weather recording intervals... More about our weather records

Advertising

Torreón weather history for previous 24 hours

 ConditionsComfort  
Time TempWeatherWind HumidityBarometerVisibility
11:43 PM
Sep 19
68 °FPassing clouds.7 mph69%30.17 "Hg10 mi
10:45 PM70 °FPassing clouds.10 mph64%30.16 "Hg10 mi
9:46 PM72 °FPassing clouds.12 mph57%29.74 "Hg10 mi
8:45 PM72 °FBroken clouds.8 mph57%30.10 "Hg10 mi
7:42 PM79 °FBroken clouds.7 mph39%30.08 "Hg12 mi
6:46 PM81 °FBroken clouds.8 mph37%29.63 "Hg14 mi
5:43 PM81 °FBroken clouds.10 mph34%30.04 "Hg14 mi
4:45 PM81 °FBroken clouds.9 mph34%30.06 "Hg14 mi
3:46 PM81 °FBroken clouds.9 mph34%29.66 "Hg14 mi
2:44 PM79 °FBroken clouds.12 mph39%30.12 "Hg14 mi
1:46 PM79 °FBroken clouds.No wind51%30.15 "Hg14 mi
12:44 PM75 °FPartly sunny.6 mph54%29.73 "Hg14 mi
11:43 AM72 °FPartly sunny.3 mph61%30.19 "Hg14 mi
10:45 AM68 °FPartly sunny.No wind69%30.20 "Hg14 mi
9:45 AM66 °FPartly sunny.No wind73%29.80 "Hg14 mi
8:42 AM59 °FPassing clouds.No wind94%30.19 "Hg14 mi
7:41 AM57 °FPassing clouds.No wind94%30.17 "Hg14 mi
6:46 AM57 °FPassing clouds.3 mph94%29.72 "Hg8 mi
5:40 AM59 °FPassing clouds.3 mph88%30.14 "Hg8 mi
5:01 AM61 °FPassing clouds.5 mph83%30.14 "Hg8 mi
Weather by CustomWeather, © 2014

See weather overviewHow to use our weather pages